Weather in Bushehr

Iran     28°56′40″N   50°50′44″E
temp.,
°C
wind,
m/s
gust,
m/s
humid.,
%
clouds,
%
prec.,
mm/h
press.,
hPa
HPBL,
m
13 april, tue
tue1301:30+25nw665016 0.0 101029
04:30+25nne224413 0.0 101011
07:30+23nne1170100 0.0 101212
10:30+24s4457100 0.0 101435
13:30+25nne7955100 0.4 101479
16:30+25ene8105593 0.4 1013102
19:30+25e7105612 0.0 101184
22:30+23e336725 0.0 101320
14 april, wed
wed1401:30+23ne676295 0.0 101155
04:30+23ne226199 0.0 101111
07:30+23n006610 0.0 101211
10:30+24nnw446188 0.0 101238
13:30+22wnw67736 0.0 101195
16:30+23wnw7107152 0.0 1009110
19:30+23wnw697398 0.0 100994
22:30+23w45720 0.0 101151
15 april, thu
thu1501:30+22wsw347671 0.0 101056
04:30+23nw612630 0.0 1011183
07:30+22nw1014550 0.0 1012242
10:30+23nw911540 0.0 1013197
13:30+22nw913570 0.0 1012209
16:30+23wnw913580 0.0 1010163
19:30+23wnw610615 0.0 1010108
22:30
16 april, fri
fri1601:30+22nw34700 0.0 101047
04:30+23nw713600 0.0 1010175
07:30+22nw611600 0.0 1011157
10:30+22nw67590 0.0 1012129
13:30+22wnw810650 0.0 1012185
16:30+23wnw610620 0.0 1010150
19:30+23w34690 0.0 100947
22:30+22w11774 0.0 100911
17 april, sat
sat1701:30+22s3368100 0.0 100934
04:30+22wnw457112 0.0 100953
07:30+22nnw456511 0.0 101080
10:30+23nw686165 0.0 1012134
13:30+23wnw8116592 0.0 1011206
16:30+24wnw61259100 0.0 1010144
19:30+24wnw5763100 0.0 101068
22:30+24nw5868100 0.0 101174